Location: Chuathbaluk
(61.5726°N, 159.2454°W)
Time: 14:38:49
(UTC+00:00)

SR - Pass Details

Date: 01 December 2020
Orbit: 575 x 880 km, 66.7° (Epoch: 17 January)

Event Time Altitude Azimuth Distance (km) Brightness Sun altitude
Rises 06:22:20 0° 234° (SW) 2,883 ? -32.8°
Reaches altitude 10° 06:24:30 10° 235° (SW) 2,015 ? -33.1°
Enters shadow 06:25:28 16° 235° (SW) 1,644 ? -33.2°
